Weather observations for the past three days for
Hanksville
Imperial (Metric)
Date Time (mdt) Wind (mph) Vis. (mi.) Weather Sky Cond. Temperature (ºF) Relative Humidity Wind Chill (°F) Heat Index (°F) Pressure Precipitation (in)
Air Dwpt 6 hour altimeter (in) sea level (mb) 1 hr 3 hr 6 hr
Max. Min.
04 15:15 SE 6 10.00 Fair CLR 69.8 35.6 29% 29.81 0.0
04 14:55 E 12 G 16 10.00 Fair CLR 68 44.6 43% 29.81 0.0
04 14:35 E 10 10.00 Partly Cloudy SCT029 SCT039 SCT045 66.2 42.8 43% 29.82 0.0
04 14:15 SE 8 G 21 7.00 Mostly Cloudy SCT016 SCT025 BKN036 62.6 42.8 49% 29.83 0.0
04 13:55 S 16 G 33 10.00 Partly Cloudy SCT014 SCT020 SCT025 68 42.8 40% 29.84 0.0
04 13:35 S 22 G 26 10.00 Partly Cloudy and Breezy SCT110 71.6 35.6 27% 29.83 0.0
04 13:15 SE 17 G 26 10.00 Partly Cloudy SCT100 73.4 33.8 23% 29.83 0.0
04 12:55 S 18 G 28 10.00 Mostly Cloudy BKN080 73.4 33.8 23% 29.83 0.0
04 12:35 S 6 G 9 10.00 Mostly Cloudy SCT080 BKN090 BKN120 71.6 33.8 25% 29.84 0.0
04 12:15 S 10 G 17 10.00 Partly Cloudy SCT090 SCT120 71.6 32 23% 29.85 0.0
04 11:55 S 13 G 17 10.00 Partly Cloudy SCT090 73.4 32 22% 29.86 0.0
04 11:35 S 8 10.00 Partly Cloudy SCT090 71.6 32 23% 29.87 0.0
04 11:15 S 8 10.00 Partly Cloudy SCT080 71.6 32 23% 29.87 0.0
04 10:55 S 13 10.00 Partly Cloudy SCT080 71.6 32 23% 29.88 0.0
04 10:35 Calm 10.00 Mostly Cloudy BKN110 69.8 32 25% 29.88 0.0
04 10:15 W 7 10.00 Mostly Cloudy BKN110 69.8 33.8 27% 29.89 0.0
04 09:55 W 7 10.00 Mostly Cloudy BKN110 68 33.8 28% 29.89 0.0
04 09:35 NW 5 10.00 Partly Cloudy SCT110 66.2 33.8 30% 29.9 0.0
04 09:15 NW 6 10.00 Partly Cloudy SCT110 64.4 33.8 32% 29.91 0.0
04 08:55 NW 5 10.00 Partly Cloudy SCT120 62.6 33.8 34% 29.91 0.0
04 08:35 N 6 10.00 Fair CLR 60.8 33.8 36% 29.91 0.0
04 08:15 NW 5 10.00 Partly Cloudy SCT090 60.8 35.6 39% 29.91 0.0
04 07:55 Calm 10.00 Partly Cloudy SCT100 59 35.6 42% 29.91 0.0
04 07:35 NE 3 10.00 Partly Cloudy SCT090 57.2 35.6 44% 29.92 0.0
04 07:15 N 5 10.00 Partly Cloudy SCT100 SCT110 55.4 35.6 47% 29.91 0.0
04 06:55 S 3 10.00 Mostly Cloudy BKN100 53.6 33.8 47% 29.91 0.0
04 06:35 SE 3 10.00 Mostly Cloudy SCT095 BKN120 53.6 33.8 47% 29.91 0.0
04 06:15 NE 6 10.00 Mostly Cloudy BKN110 53.6 33.8 47% 29.9 0.0
04 05:55 Calm 10.00 Overcast OVC110 55.4 33.8 44% 29.9 0.0
04 05:35 Calm 10.00 Overcast OVC110 57.2 33.8 41% 29.91 0.0
04 05:15 W 8 10.00 Mostly Cloudy BKN110 55.4 33.8 44% 29.91 0.0
04 04:55 W 7 10.00 Partly Cloudy SCT110 55.4 33.8 44% 29.91 0.0
04 04:35 NW 5 10.00 Fair CLR 57.2 33.8 41% 29.9 0.0
04 04:15 W 7 10.00 Partly Cloudy SCT120 57.2 33.8 41% 29.9 0.0
04 03:55 SW 12 10.00 Mostly Cloudy BKN120 59 33.8 39% 29.9 0.0
04 03:35 SW 10 10.00 Partly Cloudy SCT120 59 33.8 39% 29.9 0.0
04 03:15 SW 7 10.00 Fair CLR 60.8 33.8 36% 29.9 0.0
04 02:55 SW 9 10.00 Mostly Cloudy BKN110 60.8 35.6 39% 29.91 0.0
04 02:35 SW 8 10.00 Mostly Cloudy BKN120 60.8 35.6 39% 29.91 0.0
04 02:15 SW 7 10.00 Partly Cloudy SCT110 60.8 33.8 36% 29.9 0.0
04 01:55 SW 8 10.00 Mostly Cloudy BKN120 60.8 33.8 36% 29.91 0.0
04 01:35 SW 8 10.00 Mostly Cloudy BKN120 62.6 33.8 34% 29.91 0.0
04 01:15 SW 8 10.00 Partly Cloudy SCT120 62.6 33.8 34% 29.92 0.0
04 00:55 S 7 10.00 Partly Cloudy SCT090 SCT120 62.6 33.8 34% 29.91 0.0
04 00:35 SW 10 G 22 10.00 Partly Cloudy SCT080 SCT110 62.6 33.8 34% 29.92 0.0
04 00:15 SW 15 10.00 Partly Cloudy SCT085 SCT110 64.4 33.8 32% 29.93 0.0
03 23:55 SW 12 G 21 10.00 Mostly Cloudy BKN090 BKN110 64.4 33.8 32% 29.93 0.0
03 23:35 SW 14 G 29 10.00 Overcast OVC090 64.4 33.8 32% 29.94 0.0
03 23:15 SW 18 G 29 10.00 Overcast OVC090 64.4 33.8 32% 29.92 0.0
03 22:55 SW 15 G 23 10.00 Overcast OVC100 66.2 32 28% 29.92 0.0
03 22:35 W 20 G 29 10.00 Overcast OVC110 68 32 26% 29.91 0.0
03 22:15 W 28 G 35 10.00 Overcast and Windy SCT085 OVC110 68 32 26% 29.91 0.0
03 21:55 SW 30 G 38 10.00 Overcast and Windy SCT075 BKN090 OVC110 68 32 26% 29.9 0.0
03 21:35 SW 36 G 40 10.00 Overcast and Windy OVC110 71.6 28.4 20% 29.88 0.0
03 21:15 SW 10 G 18 10.00 Overcast OVC110 73.4 24.8 16% 29.85 0.0
03 20:55 W 15 G 21 10.00 Overcast OVC110 73.4 23 15% 29.84 0.0
03 20:35 SW 15 G 25 10.00 Mostly Cloudy SCT090 BKN120 75.2 23 14% 75 29.84 0.0
03 20:15 W 8 10.00 Fair CLR 75.2 21.2 13% 75 29.83 0.0
03 19:55 W 6 10.00 Partly Cloudy SCT110 77 19.4 11% 76 29.82 0.0
03 19:35 NW 6 0.00 Partly Cloudy SCT120 77 19.4 11% 76 29.82 0.0
03 19:15 Calm 10.00 Fair CLR 77 19.4 11% 76 29.82 0.0
03 18:55 Calm 10.00 Fair CLR 78.8 19.4 11% 77 29.82 0.0
03 18:35 Calm 10.00 Fair CLR 78.8 21.2 12% 77 29.83 0.0
03 18:15 SE 7 10.00 Fair CLR 78.8 21.2 12% 77 29.84 0.0
03 17:55 SE 7 10.00 Fair CLR 78.8 21.2 12% 77 29.84 0.0
03 17:35 SE 12 10.00 Fair CLR 78.8 21.2 12% 77 29.85 0.0
03 17:15 SE 6 10.00 Fair CLR 77 21.2 12% 76 29.85 0.0
03 16:55 S 13 G 18 10.00 Fair CLR 80.6 21.2 11% 79 29.87 0.0
03 16:35 SW 6 10.00 Fair CLR 78.8 21.2 12% 77 29.87 0.0
03 16:15 SW 9 10.00 Fair CLR 82.4 21.2 10% 80 29.88 0.0
03 15:55 SW 6 G 16 10.00 Fair CLR 80.6 21.2 11% 79 29.89 0.0
03 15:35 SE 6 10.00 Fair CLR 80.6 21.2 11% 79 29.9 0.0
03 15:15 Calm 10.00 Fair CLR 80.6 21.2 11% 79 29.92 0.0
03 14:55 S 8 G 16 10.00 Fair CLR 80.6 21.2 11% 79 29.92 0.0
03 14:35 S 7 G 18 10.00 Fair CLR 78.8 21.2 12% 77 29.94 0.0
03 14:15 N 3 10.00 Fair CLR 78.8 23 12% 77 29.95 0.0
03 13:55 SE 10 G 22 10.00 Fair CLR 78.8 23 12% 77 29.96 0.0
03 13:35 S 7 10.00 Fair CLR 78.8 23 12% 77 29.97 0.0
03 13:15 E 5 10.00 Fair CLR 78.8 23 12% 77 29.99 0.0
03 12:55 SE 7 10.00 Fair CLR 77 23 13% 76 30 0.0
03 12:35 Calm 10.00 Fair CLR 75.2 21.2 13% 75 30.01 0.0
03 12:15 E 5 10.00 Fair CLR 73.4 21.2 14% 30.03 0.0
03 11:55 Calm 10.00 Fair CLR 73.4 21.2 14% 30.04 0.0
03 11:35 Calm 10.00 Fair CLR 71.6 21.2 15% 30.05 0.0
03 11:15 Calm 10.00 Fair CLR 69.8 21.2 16% 30.06 0.0
03 10:55 Calm 10.00 Fair CLR 68 21.2 17% 30.07 0.0
03 10:35 SE 5 10.00 Fair CLR 66.2 19.4 17% 30.07 0.0
03 10:15 Calm 10.00 Fair CLR 64.4 19.4 18% 30.07 0.0
03 09:55 Calm 10.00 Fair CLR 62.6 19.4 19% 30.07 0.0
03 09:35 Calm 10.00 Fair CLR 60.8 21.2 22% 30.08 0.0
03 09:15 Calm 10.00 Fair CLR 57.2 21.2 25% 30.08 0.0
03 08:55 Calm 10.00 Fair CLR 55.4 21.2 26% 30.09 0.0
03 08:35 Calm 10.00 Fair CLR 53.6 21.2 28% 30.09 0.0
03 08:15 Calm 10.00 Fair CLR 51.8 21.2 30% 30.09 0.0
03 07:55 Calm 10.00 Fair CLR 50 21.2 32% 30.09 0.0
03 07:35 Calm 10.00 Fair CLR 46.4 21.2 37% 30.09 0.0
03 07:15 Calm 10.00 Fair CLR 42.8 19.4 39% 30.08 0.0
03 06:55 Calm 10.00 Fair CLR 44.6 19.4 37% 30.08 0.0
03 06:35 Calm 10.00 Fair CLR 41 17.6 39% 30.07 0.0
03 06:15 Calm 10.00 Fair CLR 44.6 17.6 34% 30.07 0.0
03 05:55 Calm 10.00 Fair CLR 44.6 19.4 37% 30.06 0.0
03 05:35 Calm 10.00 Fair CLR 46.4 19.4 34% 30.06 0.0
03 05:15 NW 6 10.00 Fair CLR 44.6 17.6 34% 42 30.06 0.0
03 04:55 Calm 10.00 Fair CLR 44.6 19.4 37% 30.07 0.0
03 04:35 Calm 10.00 Fair CLR 44.6 17.6 34% 30.07 0.0
03 04:15 Calm 10.00 Fair CLR 46.4 19.4 34% 30.07 0.0
03 03:55 Calm 10.00 Fair CLR 44.6 17.6 34% 30.07 0.0
03 03:35 Calm 10.00 Fair CLR 46.4 17.6 32% 30.07 0.0
03 03:15 Calm 10.00 Fair CLR 46.4 17.6 32% 30.07 0.0
03 02:55 NW 5 0.00 Fair CLR 46.4 17.6 32% 45 30.07 0.0
03 02:35 NW 5 10.00 Fair CLR 46.4 17.6 32% 45 30.07 0.0
03 02:15 N 3 10.00 Fair CLR 46.4 17.6 32% 30.07 0.0
03 01:55 N 3 10.00 Fair CLR 46.4 17.6 32% 30.08 0.0
03 01:35 Calm 10.00 Fair CLR 46.4 17.6 32% 30.08 0.0
03 01:15 NW 3 10.00 Fair CLR 50 17.6 28% 30.08 0.0
03 00:55 Calm 10.00 Fair CLR 53.6 19.4 26% 30.08 0.0
03 00:35 Calm 10.00 Fair CLR 51.8 19.4 28% 30.08 0.0
03 00:15 Calm 10.00 Fair CLR 50 17.6 28% 30.07 0.0
02 23:55 E 5 10.00 Fair CLR 53.6 19.4 26% 30.07 0.0
02 23:35 E 3 10.00 Fair CLR 53.6 17.6 24% 30.07 0.0
02 23:15 Calm 10.00 Fair CLR 55.4 19.4 24% 30.07 0.0
02 22:55 Calm 10.00 Fair CLR 55.4 17.6 23% 30.07 0.0
02 22:35 E 3 10.00 Fair CLR 55.4 17.6 23% 30.07 0.0
02 22:15 E 3 10.00 Fair CLR 59 17.6 20% 30.07 0.0
02 21:55 E 7 10.00 Fair CLR 60.8 17.6 19% 30.05 0.0
02 21:35 Calm 10.00 Fair CLR 60.8 17.6 19% 30.05 0.0
02 21:15 S 5 10.00 Fair CLR 66.2 17.6 15% 30.05 0.0
02 20:55 S 5 10.00 Fair CLR 68 19.4 16% 30.04 0.0
02 20:35 S 7 10.00 Fair CLR 68 19.4 16% 30.04 0.0
02 20:15 S 9 10.00 Fair CLR 69.8 19.4 15% 30.03 0.0
02 19:55 S 10 10.00 Fair CLR 69.8 19.4 15% 30.03 0.0
02 19:35 S 8 10.00 Fair CLR 71.6 21.2 15% 30.03 0.0
02 19:15 SE 8 10.00 Fair CLR 71.6 21.2 15% 30.03 0.0
02 18:55 S 10 10.00 Fair CLR 71.6 21.2 15% 30.03 0.0
02 18:35 SE 8 10.00 Fair CLR 73.4 21.2 14% 30.03 0.0
02 18:15 S 8 G 16 10.00 Fair CLR 73.4 21.2 14% 30.04 0.0
02 17:55 E 7 10.00 Fair CLR 73.4 21.2 14% 0 0.0
02 17:35 SE 3 10.00 Fair CLR 73.4 19.4 13% 30.05 0.0
02 17:15 Calm 10.00 Fair CLR 73.4 19.4 13% 30.05 0.0
02 16:55 E 3 10.00 Fair CLR 75.2 19.4 12% 75 30.06 0.0
02 16:35 E 6 10.00 Fair CLR 75.2 17.6 11% 75 30.07 0.0
02 16:15 W 7 10.00 Fair CLR 75.2 17.6 11% 75 30.08 0.0
02 15:55 SE 8 10.00 Fair CLR 75.2 17.6 11% 75 30.09 0.0
02 15:35 Calm 10.00 Fair CLR 73.4 15.8 11% 30.11 0.0
02 15:15 SE 6 10.00 Fair CLR 73.4 15.8 11% 30.12 0.0
02 14:55 SE 3 10.00 Fair CLR 73.4 14 10% 30.13 0.0
02 14:35 E 3 10.00 Fair CLR 73.4 14 10% 30.13 0.0
02 14:15 W 6 10.00 Fair CLR 73.4 14 10% 30.15 0.0
02 13:55 W 6 10.00 Fair CLR 71.6 12.2 10% 30.15 0.0
02 13:35 S 5 10.00 Fair CLR 71.6 14 11% 30.16 0.0
02 13:15 SW 3 10.00 Fair CLR 69.8 14 12% 30.17 0.0
02 12:55 S 6 10.00 Fair CLR 69.8 14 12% 30.18 0.0
02 12:35 Calm 10.00 Fair CLR 68 14 12% 30.19 0.0
02 12:15 E 6 10.00 Fair CLR 69.8 14 12% 30.2 0.0
02 11:55 Calm 10.00 Fair CLR 68 14 12% 30.2 0.0
02 11:35 S 5 10.00 Fair CLR 64.4 12.2 13% 30.21 0.0
02 11:15 SW 5 10.00 Fair CLR 64.4 12.2 13% 30.21 0.0
02 10:55 Calm 10.00 Fair CLR 62.6 12.2 14% 30.21 0.0
02 10:35 Calm 10.00 Fair CLR 60.8 10.4 13% 30.22 0.0
02 10:15 Calm 10.00 Fair CLR 59 10.4 14% 30.22 0.0
02 09:55 Calm 10.00 Fair CLR 59 10.4 14% 30.22 0.0
02 09:35 Calm 10.00 Fair CLR 55.4 10.4 16% 30.22 0.0
02 09:15 Calm 10.00 Fair CLR 53.6 8.6 16% 30.22 0.0
02 08:55 Calm 10.00 Fair CLR 51.8 10.4 19% 30.22 0.0
02 08:35 Calm 10.00 Fair CLR 50 12.2 22% 30.22 0.0
02 08:15 Calm 10.00 Fair CLR 46.4 12.2 25% 30.22 0.0
02 07:55 Calm 10.00 Fair CLR 44.6 12.2 27% 30.21 0.0
02 07:35 Calm 10.00 Fair CLR 41 12.2 31% 30.21 0.0
02 07:15 Calm 10.00 Fair CLR 39.2 10.4 30% 30.2 0.0
02 06:55 Calm 10.00 Fair CLR 37.4 8.6 30% 30.19 0.0
02 06:35 Calm 10.00 Fair CLR 37.4 8.6 30% 30.19 0.0
02 06:15 Calm 10.00 Fair CLR 33.8 8.6 35% 30.17 0.0
02 05:55 Calm 10.00 Fair CLR 35.6 8.6 32% 30.17 0.0
02 05:35 Calm 10.00 Fair CLR 35.6 8.6 32% 30.17 0.0
02 05:15 Calm 10.00 Fair CLR 35.6 8.6 32% 30.17 0.0
02 04:55 Calm 10.00 Fair CLR 35.6 8.6 32% 30.17 0.0
02 04:35 Calm 10.00 Fair CLR 35.6 8.6 32% 30.17 0.0
02 04:15 Calm 10.00 Fair CLR 37.4 8.6 30% 30.16 0.0
02 03:55 Calm 10.00 Fair CLR 37.4 8.6 30% 30.16 0.0
02 03:35 Calm 10.00 Fair CLR 37.4 8.6 30% 30.16 0.0
02 03:15 Calm 10.00 Fair CLR 37.4 8.6 30% 30.15 0.0
02 02:55 Calm 10.00 Fair CLR 42.8 8.6 24% 30.15 0.0
02 02:35 Calm 10.00 Fair CLR 41 8.6 26% 30.15 0.0
02 02:15 Calm 10.00 Fair CLR 42.8 8.6 24% 30.15 0.0
02 01:55 Calm 10.00 Fair CLR 42.8 6.8 22% 30.15 0.0
02 01:35 Calm 10.00 Fair CLR 44.6 6.8 21% 30.15 0.0
02 01:15 Calm 10.00 Fair CLR 46.4 6.8 20% 30.15 0.0
02 00:55 Calm 10.00 Fair CLR 48.2 5 17% 30.14 0.0
02 00:35 NW 3 10.00 Fair CLR 48.2 5 17% 30.14 0.0
02 00:15 Calm 10.00 Fair CLR 50 6.8 17% 30.13 0.0
01 23:55 Calm 10.00 Fair CLR 51.8 6.8 16% 30.13 0.0
01 23:35 N 7 10.00 Fair CLR 51.8 5 15% 30.12 0.0
01 23:15 N 9 10.00 Fair CLR 51.8 6.8 16% 30.12 0.0
01 22:55 N 10 10.00 Fair CLR 51.8 6.8 16% 30.12 0.0
01 22:35 N 9 10.00 Fair CLR 53.6 6.8 15% 30.12 0.0
01 22:15 NE 8 10.00 Fair CLR 51.8 6.8 16% 30.11 0.0
01 21:55 N 7 10.00 Fair CLR 51.8 6.8 16% 0 0.0
01 21:35 N 5 10.00 Fair CLR 55.4 6.8 14% 30.09 0.0
01 21:15 NE 7 10.00 Fair CLR 55.4 8.6 15% 30.09 0.0
01 20:55 NE 5 10.00 Fair CLR 55.4 8.6 15% 30.08 0.0
01 20:35 NE 6 10.00 Fair CLR 59 8.6 13% 30.07 0.0
01 20:15 NE 8 10.00 Fair CLR 62.6 8.6 12% 30.07 0.0
01 19:55 NE 8 10.00 Fair CLR 64.4 10.4 12% 30.06 0.0
01 19:35 NE 8 10.00 Fair CLR 66.2 10.4 11% 30.05 0.0
01 19:15 NE 10 10.00 Fair CLR 66.2 10.4 11% 30.05 0.0
01 18:55 NE 10 10.00 Fair CLR 68 10.4 10% 30.05 0.0
01 18:35 NE 13 G 18 10.00 Fair CLR 68 8.6 10% 30.05 0.0
01 18:15 NE 10 G 18 10.00 Fair CLR 68 8.6 10% 30.05 0.0
01 17:55 E 10 10.00 Fair CLR 68 8.6 10% 30.05 0.0
01 17:35 NE 13 G 20 10.00 Fair CLR 68 6.8 9% 30.05 0.0
01 17:15 NE 9 10.00 Fair CLR 68 8.6 10% 30.05 0.0
01 16:55 N 8 G 16 10.00 Fair CLR 69.8 8.6 9% 30.05 0.0
01 16:35 NE 13 G 23 10.00 Fair CLR 69.8 10.4 10% 30.05 0.0
01 16:15 NE 9 G 22 10.00 Fair CLR 68 12.2 11% 30.05 0.0
01 15:55 NE 8 G 21 10.00 Fair CLR 69.8 12.2 11% 30.07 0.0
01 15:35 Calm 10.00 Fair CLR 68 12.2 11% 30.07 0.0
Date Time (mdt) Wind (mph) Vis. (mi.) Weather Sky Cond. Air Dwpt Max. Min. Relative Humidity Wind Chill (°F) Heat Index (°F) altimeter (in) sea level (mb) 1 hr 3 hr 6 hr
6 hour
Temperature (ºF) Pressure Precipitation (in)